Regional Weather Roundup
Issued by NWS

Home | Current Version | Previous Version | Graphics & Text | Print | Product List | Glossary On
Versions: 1 2 3 4 5 6 7 8 9 10 11 12 13 14 15 16 17 18 19 20 21 22 23 24 25 26 27 28 29 30 31 32 33 34 35 36 37 38 39 40 41 42 43 44 45 46 47 48 49 50
977
ASUS43 KLMK 060110
RWRKY
KENTUCKY REGIONAL WEATHER ROUNDUP
NATIONAL WEATHER SERVICE LOUISVILLE KY
800 PM EST FRI FEB 05 2016

NOTE "FAIR" INDICATES FEW OR NO CLOUDS BELOW 12,000 FEET
WITH NO SIGNIFICANT WEATHER AND/OR OBSTRUCTIONS TO VISIBILITY.

KYZ001>023-026-027-061>063-070>075-060200-
WESTERN AND SOUTH CENTRAL KENTUCKY

CITY           SKY/WX    TMP DP  RH WIND       PRES   REMARKS
PADUCAH        CLOUDY    41  22  46 SE6       30.35F
HENDERSON      CLEAR     36  23  60 CALM      30.37F
OWENSBORO      CLOUDY    38  27  65 CALM      30.38F
HOPKINSVILLE   CLOUDY    41  22  47 S2        30.38S
BOWLING GREEN  CLOUDY    39  21  48 S5        30.39F
GLASGOW        CLOUDY    34  21  59 CALM      30.39F
$$

KYZ024-025-028>034-038-045-046-053-060200-
NORTH CENTRAL KENTUCKY

CITY           SKY/WX    TMP DP  RH WIND       PRES   REMARKS
LOUISVILLE/SDF PTCLDY    41  18  39 S6        30.36F
LOUISVILLE/LOU CLEAR     41  20  43 CALM      30.37F
FORT KNOX      CLEAR     35  21  57 S2        30.35F
$$

KYZ035>037-039>044-047>052-055>060-089>105-060200-
NORTHEAST KENTUCKY

CITY           SKY/WX    TMP DP  RH WIND       PRES   REMARKS
LEXINGTON      CLOUDY    36  18  48 S6        30.37F WCI  31
COVINGTON      MOCLDY    33  19  56 S6        30.34F WCI  28
FRANKFORT      CLOUDY    37  18  46 S7        30.36S WCI  32
$$

KYZ054-064>069-076>088-106>120-060200-
SOUTHEAST KENTUCKY

CITY           SKY/WX    TMP DP  RH WIND       PRES   REMARKS
JACKSON        CLOUDY    36  11  35 CALM      30.37F
LONDON         CLOUDY    33  17  51 CALM      30.38S
SOMERSET       CLOUDY    32  19  59 CALM      30.41S
MIDDLESBORO    CLOUDY    33  20  59 W3        30.40S
MONTICELLO     CLOUDY    29  23  78 NE8       30.42R WCI  21
$$





USA.gov is the U.S. government's official web portal to all federal, state and local government web resources and services.